W2IRT West Caldwell NJ US current weather conditions

sailwx.info

Wind from 315 at 2 knots gusting 5

Air temperature 3.3° C
Dewpoint -2.4° C

Last reported at 2020-Jan-28 23:05 UTC.
Time now 2020-Jan-28 23:56 UTC

Location: N 40°52' W 074°17'.
View on Google Maps.

See reports from other nearby stations

  
Tides and Currents Weather Stations Pressure Air Temp Water Temp Dewpoint Dewpoint Depression Visibility Wind Speed Wind Dir Waves Ship Positions
date/time (UTC)wind fromknots sea level pressurealtimeterstation pressurevisibilityair tempwater tempwave heightnotes
2020-Jan-28 23:05 315 2 gusting 5 3.3
2020-Jan-28 23:00 3.3
2020-Jan-28 22:55 292 1 gusting 5 3.3
2020-Jan-28 22:45 292 2 gusting 7 3.3
2020-Jan-28 22:40 292 2 gusting 4 3.3
2020-Jan-28 22:30 315 1 gusting 5 3.3
2020-Jan-28 22:20 3.3
2020-Jan-28 22:15 315 1 gusting 4 3.3
2020-Jan-28 22:10 292 1 gusting 5 3.9
2020-Jan-28 22:05 292 3 gusting 6 3.9
2020-Jan-28 22:00 292 4 gusting 7 3.9
2020-Jan-28 21:50 270 2 gusting 6 3.9
2020-Jan-28 21:45 292 3 gusting 6 3.9
2020-Jan-28 21:40 292 2 gusting 6 3.9
2020-Jan-28 21:35 292 4 gusting 7 3.9
2020-Jan-28 21:25 292 4 gusting 11 3.9
2020-Jan-28 21:20 315 4 gusting 7 3.9
2020-Jan-28 21:10 315 3 gusting 9 3.9
2020-Jan-28 21:00 292 3 gusting 6 3.9
2020-Jan-28 20:55 292 3 gusting 7 3.9
2020-Jan-28 20:50 292 3 gusting 8 3.9
2020-Jan-28 20:40 292 4 gusting 11 4.4
2020-Jan-28 20:35 292 3 gusting 6 4.4
2020-Jan-28 20:30 292 1 gusting 6 4.4
2020-Jan-28 20:20 292 2 gusting 7 4.4
2020-Jan-28 20:15 315 2 gusting 6 4.4
2020-Jan-28 20:10 292 2 gusting 6 4.4
2020-Jan-28 20:05 292 2 gusting 5 4.4
2020-Jan-28 20:00 292 4 gusting 8 4.4
2020-Jan-28 19:55 292 3 gusting 7 4.4
2020-Jan-28 19:50 292 2 gusting 5 4.4
2020-Jan-28 19:40 292 1 gusting 6 4.4
2020-Jan-28 19:35 292 2 gusting 5 3.9
2020-Jan-28 19:30 292 1 gusting 3 3.9
2020-Jan-28 19:20 292 2 gusting 6 3.9
2020-Jan-28 19:10 3.9
2020-Jan-28 19:05 315 2 gusting 6 3.9
2020-Jan-28 19:00 292 3 gusting 7 3.9
2020-Jan-28 18:50 315 3 gusting 7 4.4
2020-Jan-28 18:40 292 3 gusting 6 4.4
2020-Jan-28 18:35 292 2 gusting 6 4.4
2020-Jan-28 18:30 292 3 gusting 6 4.4
2020-Jan-28 18:25 292 4 gusting 9 4.4
2020-Jan-28 18:20 292 5 gusting 10 4.4
2020-Jan-28 18:10 292 5 gusting 9 4.4
2020-Jan-28 18:05 270 4 gusting 9 4.4
2020-Jan-28 17:55 4.4
2020-Jan-28 17:50 292 4 gusting 8 5.0
2020-Jan-28 17:40 292 3 gusting 6 5.0
2020-Jan-28 17:35 292 4 gusting 9 5.0
2020-Jan-28 17:30 292 4 gusting 8 5.0
2020-Jan-28 17:25 292 5 gusting 9 5.6
2020-Jan-28 17:20 5.6
2020-Jan-28 17:15 292 3 gusting 10 5.6
2020-Jan-28 17:10 292 3 gusting 6 5.6
2020-Jan-28 17:00 292 5 gusting 9 5.0
2020-Jan-28 16:55 292 4 gusting 7 5.0
2020-Jan-28 16:50 5.0
2020-Jan-28 16:40 315 4 gusting 7 5.0
2020-Jan-28 16:35 292 3 gusting 8 5.0
2020-Jan-28 16:30 5.0
2020-Jan-28 16:25 5.0
2020-Jan-28 16:15 315 3 gusting 7 5.0
2020-Jan-28 16:10 5.0
2020-Jan-28 16:05 292 5 gusting 11 5.0
2020-Jan-28 16:00 292 4 gusting 8 5.0
2020-Jan-28 15:55 292 5 gusting 9 5.0
2020-Jan-28 15:50 292 3 gusting 10 4.4
2020-Jan-28 15:45 270 4 gusting 10 4.4
2020-Jan-28 15:40 315 2 gusting 6 4.4
2020-Jan-28 15:35 315 3 gusting 8 4.4
2020-Jan-28 15:25 292 3 gusting 7 4.4
2020-Jan-28 15:20 270 3 gusting 7 4.4
2020-Jan-28 15:10 315 2 gusting 5 3.9
2020-Jan-28 15:05 292 3 gusting 8 3.9
2020-Jan-28 15:00 292 3 gusting 6 3.9
2020-Jan-28 14:50 292 2 gusting 6 3.9
2020-Jan-28 14:40 270 3 gusting 7 3.9
2020-Jan-28 14:35 292 2 gusting 4 3.3
2020-Jan-28 14:30 292 2 gusting 6 3.3
2020-Jan-28 14:25 292 2 gusting 6 3.3
2020-Jan-28 14:20 292 3 gusting 9 3.3
2020-Jan-28 14:15 315 1 gusting 5 3.3
2020-Jan-28 14:10 270 2 gusting 6 3.3
2020-Jan-28 14:05 292 2 gusting 5 3.3
2020-Jan-28 14:00 3.3
2020-Jan-28 13:55 270 2 gusting 6 2.8
2020-Jan-28 13:50 292 2 gusting 6 2.8
2020-Jan-28 13:45 2.8
2020-Jan-28 13:35 315 2 gusting 6 2.8
2020-Jan-28 13:30 292 2 gusting 6 2.8
2020-Jan-28 13:25 315 1 gusting 3 2.8
2020-Jan-28 13:20 292 2 gusting 6 2.8
2020-Jan-28 13:15 292 1 gusting 4 2.8
2020-Jan-28 13:10 292 2 gusting 5 2.2
2020-Jan-28 13:05 315 1 gusting 5 2.2
2020-Jan-28 13:00 292 1 gusting 4 2.2
2020-Jan-28 12:55 292 2 gusting 6 2.2
2020-Jan-28 12:50 270 1 gusting 4 2.2
2020-Jan-28 12:45 292 2 gusting 5 2.2
2020-Jan-28 12:35 270 1 gusting 4 2.2
2020-Jan-28 12:30 292 1 gusting 6 2.2
2020-Jan-28 12:25 270 0 gusting 3 2.2
2020-Jan-28 12:20 270 2 gusting 6 2.2
2020-Jan-28 12:15 292 0 gusting 3 2.2
2020-Jan-28 12:10 292 1 gusting 5 2.2
2020-Jan-28 12:05 292 1 gusting 6 2.2
2020-Jan-28 12:00 292 0 gusting 3 2.2
2020-Jan-28 11:55 270 2 gusting 6 2.2
2020-Jan-28 11:50 270 0 gusting 2 2.2
2020-Jan-28 11:45 292 1 gusting 5 2.2
2020-Jan-28 11:40 292 1 gusting 5 2.2
2020-Jan-28 11:35 292 0 gusting 3 2.2
2020-Jan-28 11:30 292 1 gusting 4 2.2
2020-Jan-28 11:25 292 2 gusting 5 2.2
2020-Jan-28 11:20 292 1 gusting 5 2.2
2020-Jan-28 11:15 292 2 gusting 6 2.2
2020-Jan-28 11:10 292 2 gusting 7 2.2
2020-Jan-28 11:00 292 1 gusting 4 2.2
2020-Jan-28 10:55 315 2 gusting 4 2.2
2020-Jan-28 10:50 292 2 gusting 4 2.2
2020-Jan-28 10:45 292 2 gusting 5 2.8
2020-Jan-28 10:40 270 1 gusting 5 2.2
2020-Jan-28 10:35 270 1 gusting 5 2.2
2020-Jan-28 10:30 315 1 gusting 3 2.2
2020-Jan-28 10:20 292 1 gusting 5 2.8
2020-Jan-28 10:10 270 2 gusting 6 2.2
2020-Jan-28 10:05 292 1 gusting 6 2.2
2020-Jan-28 10:00 315 0 gusting 3 2.2
2020-Jan-28 09:55 292 0 gusting 2 2.2
2020-Jan-28 09:45 292 0 gusting 3 2.2
2020-Jan-28 09:35 315 0 gusting 3 2.2
2020-Jan-28 09:25 292 1 gusting 4 2.2
2020-Jan-28 09:20 292 1 gusting 4 2.2
2020-Jan-28 09:15 292 0 gusting 3 2.2
2020-Jan-28 09:10 315 0 gusting 3 2.8
2020-Jan-28 09:05 270 1 gusting 5 2.8
2020-Jan-28 09:00 292 0 gusting 4 2.8
2020-Jan-28 08:50 292 0 gusting 3 2.8
2020-Jan-28 08:45 315 0 gusting 3 2.8
2020-Jan-28 08:40 292 1 gusting 4 2.8
2020-Jan-28 08:35 292 2 gusting 6 2.8
2020-Jan-28 08:30 292 2 gusting 6 2.8
2020-Jan-28 08:25 292 2 gusting 5 2.8
2020-Jan-28 08:20 292 2 gusting 7 2.8
2020-Jan-28 08:10 270 3 gusting 6 2.8
2020-Jan-28 08:00 292 2 gusting 4 2.8
2020-Jan-28 07:55 292 1 gusting 4 2.8
2020-Jan-28 07:50 292 2 gusting 5 2.8
2020-Jan-28 07:45 270 2 gusting 6 2.8
2020-Jan-28 07:35 292 2 gusting 6 2.8
2020-Jan-28 07:30 292 1 gusting 4 2.8
2020-Jan-28 07:20 292 2 gusting 6 2.8
2020-Jan-28 07:15 292 3 gusting 6 2.8
2020-Jan-28 07:10 292 0 gusting 4 3.3
2020-Jan-28 07:05 292 2 gusting 5 3.3
2020-Jan-28 07:00 270 1 gusting 8 3.3
2020-Jan-28 06:50 270 0 gusting 2 3.3
2020-Jan-28 06:45 270 2 gusting 6 3.3
2020-Jan-28 06:35 292 1 gusting 3 3.3
2020-Jan-28 06:30 292 1 gusting 5 3.3
2020-Jan-28 06:20 292 1 gusting 5 3.3
2020-Jan-28 06:10 292 0 gusting 3 3.3
2020-Jan-28 06:05 292 0 gusting 4 3.3
2020-Jan-28 06:00 292 2 gusting 6 3.3
2020-Jan-28 05:55 292 2 gusting 5 3.3
2020-Jan-28 05:50 292 2 gusting 5 3.3
2020-Jan-28 05:45 270 4 gusting 10 3.3
2020-Jan-28 05:40 292 2 gusting 6 3.3
2020-Jan-28 05:35 292 2 gusting 7 3.3
2020-Jan-28 05:30 292 2 gusting 7 3.3
2020-Jan-28 05:25 270 1 gusting 3 3.3
2020-Jan-28 05:15 292 1 gusting 5 3.3
2020-Jan-28 05:10 292 1 gusting 6 3.3
2020-Jan-28 05:05 292 1 gusting 5 3.3
2020-Jan-28 05:00 292 1 gusting 5 3.3
2020-Jan-28 04:50 292 0 gusting 4 3.3
2020-Jan-28 04:45 292 1 gusting 5 3.3
2020-Jan-28 04:40 292 1 gusting 5 3.3
2020-Jan-28 04:35 292 2 gusting 4 3.3
2020-Jan-28 04:30 292 2 gusting 7 3.3
2020-Jan-28 04:25 315 1 gusting 3 3.3
2020-Jan-28 04:20 315 1 gusting 3 3.3
2020-Jan-28 04:10 270 1 gusting 6 3.3
2020-Jan-28 04:05 292 1 gusting 5 3.3
2020-Jan-28 04:00 270 1 gusting 4 3.9
2020-Jan-28 03:50 292 1 gusting 5 3.9
2020-Jan-28 03:45 292 2 gusting 6 3.9
2020-Jan-28 03:40 315 1 gusting 6 3.9
2020-Jan-28 03:35 292 2 gusting 6 3.9
2020-Jan-28 03:30 292 2 gusting 4 3.9
2020-Jan-28 03:20 292 1 gusting 5 3.9
2020-Jan-28 03:15 292 2 gusting 6 3.9
2020-Jan-28 03:05 3.9
2020-Jan-28 03:00 292 1 gusting 4 3.9
2020-Jan-28 02:50 292 1 gusting 4 3.9
2020-Jan-28 02:40 292 3 gusting 6 4.4
2020-Jan-28 02:30 315 2 gusting 4 4.4
2020-Jan-28 02:25 292 1 gusting 4 4.4
2020-Jan-28 02:20 292 2 gusting 6 4.4
2020-Jan-28 02:15 315 1 gusting 3 4.4
2020-Jan-28 02:05 4.4
2020-Jan-28 02:00 4.4
2020-Jan-28 01:50 4.4
2020-Jan-28 01:45 4.4
2020-Jan-28 01:35 4.4
2020-Jan-28 01:30 4.4
2020-Jan-28 01:25 4.4
2020-Jan-28 01:20 4.4
2020-Jan-28 01:15 4.4
2020-Jan-28 01:05 4.4
2020-Jan-28 01:00 5.0
2020-Jan-28 00:55 5.0
2020-Jan-28 00:50 5.0
2020-Jan-28 00:45 270 0 gusting 3 5.0
2020-Jan-28 00:40 292 0 gusting 3 5.0
2020-Jan-28 00:35 5.0
2020-Jan-28 00:25 292 0 gusting 3 5.0
2020-Jan-28 00:20 292 0 gusting 3 5.0
2020-Jan-28 00:15 292 0 gusting 3 5.0
2020-Jan-28 00:10 292 0 gusting 3 5.0
2020-Jan-28 00:05 5.0
2020-Jan-27 23:55 270 0 gusting 3 5.0
2020-Jan-27 23:50 292 1 gusting 4 5.0
2020-Jan-27 23:45 270 0 gusting 3 5.0
2020-Jan-27 23:40 292 0 gusting 3 5.0
2020-Jan-27 23:35 270 0 gusting 4 5.0
2020-Jan-27 23:30 5.0
2020-Jan-27 23:25 292 0 gusting 3 5.0
2020-Jan-27 23:20 292 1 gusting 3 5.6
2020-Jan-27 23:15 270 1 gusting 4 5.6
2020-Jan-27 23:05 292 1 gusting 4 5.6
2020-Jan-27 23:00 292 0 gusting 3 5.6
2020-Jan-27 22:50 5.6
2020-Jan-27 22:45 292 0 gusting 2 5.6
2020-Jan-27 22:35 292 0 gusting 2 5.6
2020-Jan-27 22:30 5.6
2020-Jan-27 22:25 292 0 gusting 2 5.6
2020-Jan-27 22:20 292 0 gusting 3 5.6
2020-Jan-27 22:15 292 0 gusting 3 5.6
2020-Jan-27 22:10 292 1 gusting 3 5.6
2020-Jan-27 22:05 292 3 gusting 8 5.6
2020-Jan-27 22:00 292 3 gusting 6 5.6
2020-Jan-27 21:50 292 3 gusting 6 5.6
2020-Jan-27 21:45 5.6
2020-Jan-27 21:40 292 2 gusting 6 5.6
2020-Jan-27 21:30 292 1 gusting 5 6.1
2020-Jan-27 21:25 292 0 gusting 3 6.1
2020-Jan-27 21:15 292 1 gusting 4 6.1
2020-Jan-27 21:05 292 3 gusting 9 6.1
2020-Jan-27 21:00 292 2 gusting 6 6.1
2020-Jan-27 20:50 292 2 gusting 6 6.7
2020-Jan-27 20:45 292 3 gusting 7 6.7
2020-Jan-27 20:40 270 2 gusting 7 6.7
2020-Jan-27 20:35 292 2 gusting 10 6.7
2020-Jan-27 20:30 292 1 gusting 6 6.7
2020-Jan-27 20:20 292 2 gusting 4 6.7
2020-Jan-27 20:10 270 1 gusting 5 6.7
2020-Jan-27 20:05 270 1 gusting 3 6.7
2020-Jan-27 20:00 270 1 gusting 3 6.7
2020-Jan-27 19:55 292 2 gusting 6 6.7
2020-Jan-27 19:50 6.7
2020-Jan-27 19:40 270 3 gusting 6 6.7
2020-Jan-27 19:30 292 2 gusting 7 6.7
2020-Jan-27 19:25 292 3 gusting 6 6.7
2020-Jan-27 19:20 270 2 gusting 5 6.7
2020-Jan-27 19:15 270 3 gusting 7 6.7
2020-Jan-27 19:10 292 1 gusting 6 6.7
2020-Jan-27 19:00 6.7
2020-Jan-27 18:50 270 1 gusting 5 6.7
2020-Jan-27 18:40 270 3 gusting 6 6.7
2020-Jan-27 18:35 270 2 gusting 6 6.7
2020-Jan-27 18:25 270 2 gusting 6 6.7
2020-Jan-27 18:20 270 2 gusting 6 6.7
2020-Jan-27 18:10 292 3 gusting 7 6.7
2020-Jan-27 18:05 270 2 gusting 6 6.7
2020-Jan-27 18:00 270 0 gusting 3 6.7
2020-Jan-27 17:55 270 0 gusting 4 6.7
2020-Jan-27 17:50 247 1 gusting 3 6.7
2020-Jan-27 17:45 270 1 gusting 4 6.7
2020-Jan-27 17:35 6.1
2020-Jan-27 17:25 270 1 gusting 4 6.1
2020-Jan-27 17:15 225 2 gusting 4 6.1
2020-Jan-27 17:10 6.1
2020-Jan-27 17:05 225 1 gusting 5 6.1
2020-Jan-27 17:00 225 2 gusting 6 5.6
2020-Jan-27 16:55 202 0 gusting 3 5.6
2020-Jan-27 16:50 225 0 gusting 3 5.6
2020-Jan-27 16:45 225 1 gusting 7 5.6
2020-Jan-27 16:40 202 3 gusting 6 5.6
2020-Jan-27 16:35 225 2 gusting 6 5.6
2020-Jan-27 16:30 225 3 gusting 6 5.6
2020-Jan-27 16:25 225 2 gusting 6 5.6
2020-Jan-27 16:15 225 1 gusting 5 5.6
2020-Jan-27 16:10 225 2 gusting 5 5.6
2020-Jan-27 16:05 225 1 gusting 5 5.0
2020-Jan-27 16:00 225 1 gusting 5 5.0
2020-Jan-27 15:55 225 2 gusting 6 5.0
2020-Jan-27 15:50 225 1 gusting 4 5.0
2020-Jan-27 15:45 225 0 gusting 4 4.4
2020-Jan-27 15:40 202 0 gusting 3 4.4
2020-Jan-27 15:30 225 0 gusting 4 4.4
2020-Jan-27 15:25 225 2 gusting 6 3.9
2020-Jan-27 15:20 225 3 gusting 6 3.9
2020-Jan-27 15:15 225 2 gusting 5 3.3
2020-Jan-27 15:10 202 1 gusting 4 3.3
2020-Jan-27 15:05 225 2 gusting 4 3.3
2020-Jan-27 14:55 202 2 gusting 6 3.3
2020-Jan-27 14:50 202 2 gusting 6 3.3
2020-Jan-27 14:45 3.3
2020-Jan-27 14:40 202 1 gusting 6 2.8
2020-Jan-27 14:35 225 2 gusting 5 2.8
2020-Jan-27 14:30 202 3 gusting 7 2.8
2020-Jan-27 14:25 225 3 gusting 6 2.8
2020-Jan-27 14:20 225 2 gusting 5 2.2
2020-Jan-27 14:15 202 1 gusting 5 2.2
2020-Jan-27 14:10 202 2 gusting 6 2.2
2020-Jan-27 14:05 225 0 gusting 4 2.2
2020-Jan-27 14:00 225 1 gusting 6 2.2
2020-Jan-27 13:50 225 2 gusting 6 2.2
2020-Jan-27 13:45 202 1 gusting 6 2.2
2020-Jan-27 13:40 202 1 gusting 4 1.7
2020-Jan-27 13:35 202 1 gusting 5 1.7
2020-Jan-27 13:30 202 0 gusting 2 1.7
2020-Jan-27 13:25 202 0 gusting 3 1.7
2020-Jan-27 13:20 225 1 gusting 4 1.7
2020-Jan-27 13:10 1.7
2020-Jan-27 13:05 225 0 gusting 3 1.7
2020-Jan-27 13:00 202 0 gusting 3 1.7
2020-Jan-27 12:55 225 0 gusting 3 1.7
2020-Jan-27 12:45 225 0 gusting 4 1.7
2020-Jan-27 12:40 1.7
2020-Jan-27 12:35 202 0 gusting 5 1.7
2020-Jan-27 12:30 202 1 gusting 5 1.7
2020-Jan-27 12:25 225 0 gusting 3 1.7
2020-Jan-27 12:15 1.7
2020-Jan-27 12:10 225 0 gusting 3 1.7
2020-Jan-27 12:05 225 0 gusting 6 1.7
2020-Jan-27 12:00 225 1 gusting 3 1.7
2020-Jan-27 11:50 225 1 gusting 5 1.7
2020-Jan-27 11:45 202 1 gusting 3 1.7
2020-Jan-27 11:40 202 1 gusting 5 1.7
2020-Jan-27 11:35 247 0 gusting 4 1.7
2020-Jan-27 11:25 202 0 gusting 3 1.7
2020-Jan-27 11:20 202 1 gusting 5 1.7
2020-Jan-27 11:15 225 1 gusting 6 1.7
2020-Jan-27 11:10 225 0 gusting 3 1.7
2020-Jan-27 11:05 202 0 gusting 2 1.7
2020-Jan-27 11:00 225 0 gusting 4 1.7
2020-Jan-27 10:55 2.2
2020-Jan-27 10:45 225 0 gusting 3 2.2
2020-Jan-27 10:40 202 1 gusting 5 2.2
2020-Jan-27 10:35 202 1 gusting 3 2.2
2020-Jan-27 10:25 202 1 gusting 4 1.7
2020-Jan-27 10:20 202 1 gusting 4 1.7
2020-Jan-27 10:10 225 0 gusting 3 1.7
2020-Jan-27 10:05 225 1 gusting 4 1.7
2020-Jan-27 10:00 202 0 gusting 3 1.7
2020-Jan-27 09:50 202 1 gusting 3 1.7
2020-Jan-27 09:40 225 1 gusting 3 1.7
2020-Jan-27 09:35 202 1 gusting 4 1.7
2020-Jan-27 09:25 202 0 gusting 2 1.7
2020-Jan-27 09:20 202 0 gusting 4 1.7
2020-Jan-27 09:15 225 0 gusting 3 1.7
2020-Jan-27 09:10 225 0 gusting 3 1.7
2020-Jan-27 09:05 225 0 gusting 3 1.7
2020-Jan-27 09:00 225 0 gusting 3 1.7
2020-Jan-27 08:50 225 1 gusting 3 1.7
2020-Jan-27 08:45 225 1 gusting 5 1.7
2020-Jan-27 08:40 225 1 gusting 3 1.7
2020-Jan-27 08:30 202 0 gusting 4 1.7
2020-Jan-27 08:20 202 0 gusting 5 1.7
2020-Jan-27 08:15 1.7
2020-Jan-27 08:10 1.7
2020-Jan-27 08:00 1.7
2020-Jan-27 07:50 225 0 gusting 2 1.7
2020-Jan-27 07:45 1.7
2020-Jan-27 07:40 1.7
2020-Jan-27 07:30 202 1 gusting 4 1.7
2020-Jan-27 07:25 225 1 gusting 4 1.7
2020-Jan-27 07:20 202 0 gusting 2 1.7
2020-Jan-27 07:10 225 0 gusting 3 1.7
2020-Jan-27 07:00 225 0 gusting 4 1.7
2020-Jan-27 06:50 202 1 gusting 4 1.7
2020-Jan-27 06:45 202 1 gusting 3 1.7
2020-Jan-27 06:35 1.7
2020-Jan-27 06:25 1.7
2020-Jan-27 06:15 1.7
2020-Jan-27 06:05 1.7
2020-Jan-27 06:00 1.1
2020-Jan-27 05:50 202 0 gusting 3 1.1
2020-Jan-27 05:40 1.1
2020-Jan-27 05:35 1.1
2020-Jan-27 05:30 1.1
2020-Jan-27 05:25 225 0 gusting 3 1.1
2020-Jan-27 05:20 1.1
2020-Jan-27 05:15 1.1
2020-Jan-27 05:05 1.1
2020-Jan-27 04:55 1.1
2020-Jan-27 04:45 1.1
2020-Jan-27 04:40 1.1
2020-Jan-27 04:35 1.1
2020-Jan-27 04:25 1.1
2020-Jan-27 04:15 1.7
2020-Jan-27 04:10 202 0 gusting 2 1.7
2020-Jan-27 04:05 225 0 gusting 2 1.7
2020-Jan-27 04:00 225 0 gusting 3 1.7
2020-Jan-27 03:50 225 0 gusting 2 1.7
2020-Jan-27 03:45 225 0 gusting 3 1.7
2020-Jan-27 03:40 202 0 gusting 3 1.7
2020-Jan-27 03:35 225 0 gusting 2 1.7
2020-Jan-27 03:30 1.7
2020-Jan-27 03:25 225 0 gusting 5 1.7
2020-Jan-27 03:20 1.7
2020-Jan-27 03:10 1.7
2020-Jan-27 03:05 1.7
2020-Jan-27 03:00 1.7
2020-Jan-27 02:50 1.7
2020-Jan-27 02:45 2.2
2020-Jan-27 02:40 2.2
2020-Jan-27 02:35 2.2
2020-Jan-27 02:30 2.2
2020-Jan-27 02:20 202 0 gusting 3 2.2
2020-Jan-27 02:15 202 0 gusting 3 2.2
2020-Jan-27 02:05 225 0 gusting 2 2.2
2020-Jan-27 01:55 225 0 gusting 3 2.8
2020-Jan-27 01:50 225 0 gusting 2 2.8
2020-Jan-27 01:40 225 1 gusting 4 2.8
2020-Jan-27 01:35 225 1 gusting 4 2.8
2020-Jan-27 01:25 202 1 gusting 3 2.8
2020-Jan-27 01:20 202 0 gusting 3 2.8
2020-Jan-27 01:15 2.8
2020-Jan-27 01:10 2.8
2020-Jan-27 01:05 3.3
2020-Jan-27 01:00 225 0 gusting 2 3.3
2020-Jan-27 00:50 225 1 gusting 4 3.3
2020-Jan-27 00:40 3.9
2020-Jan-27 00:35 3.9
2020-Jan-27 00:30 225 0 gusting 2 3.9
2020-Jan-27 00:25 3.9
2020-Jan-27 00:15 225 0 gusting 2 3.9
2020-Jan-27 00:10 225 1 gusting 4 3.9
2020-Jan-27 00:05 3.9
2020-Jan-27 00:00 225 0 gusting 3 3.9
2020-Jan-26 23:55 247 1 gusting 3 3.9
2020-Jan-26 23:50 225 1 gusting 5 3.9
2020-Jan-26 23:45 225 1 gusting 6 3.9
2020-Jan-26 23:35 225 0 gusting 2 3.9
2020-Jan-26 23:30 225 0 gusting 2 4.4
2020-Jan-26 23:25 225 1 gusting 4 4.4
2020-Jan-26 23:20 225 0 gusting 3 4.4
2020-Jan-26 23:15 225 0 gusting 3 4.4
2020-Jan-26 23:10 202 0 gusting 3 4.4
2020-Jan-26 23:05 225 0 gusting 2 4.4
2020-Jan-26 23:00 225 0 gusting 2 5.0